STARLINK-2245, 48589

Orbit data source: Space-Track

STARLINK-2245, 48589 is a payload satellite owned by SpaceX/Seattle (US) in LEO that was launched on Sat, 15 May 2021 UTC via an FALCON 9 launch vehicle from the Air Force Eastern Test Range (AFETR). Payload-class satellites include a variety of spacecraft equipped with specific instruments for various scientific and technological missions. These include communications satellites like Starlink; space stations such as the ISS; scientific satellites like the Hubble; Earth observation satellites from companies like Planet Labs, Umbra, and HawkEye 360; GPS; miniature CubeSats for education and research; and military/defense satellites.

Loading next visibility...
Identifier
48589, 2021-041AN
Orbit
LEO
Country
Flag of USUS
Related business
Manufacturer
SpaceX/Seattle
Mission
Operational Commercial Communications
Bus & Motor
STARLINK, Unknown motor
Mass
260 kg wet, ~248 kg dry
Launch date (UTC)
2021-05-15 (5 years ago)
Launch vehicle
FALCON 9
Launch site
Air Force Eastern Test Range (AFETR)
Object type
Payload
Rocket body
Debris
Shape & HBR
Box + 1 Pan, 10.1 m
Radar Cross Section
13.562 m², Large (>1 m²)

Expand to show TLE details & history
Last TLE update: 2 days ago

TLE from 2 days ago
0 STARLINK-2245
1 48589U 21041AN  26170.97182258  .00000621  00000-0  31774-4 0  9995
2 48589  53.1605  10.9492 0001119  77.9466 282.1661 15.31704520280949
Epoch: 2026-06-19T23:19Z
TLE epoch observation values (Epoch: 2026-06-19T23:19:25.470Z)
Latitude
-0.00002°
Longitude
112.89992°
Altitude
471.465 km
Speed
7.632 km/s
True Right ascension
00h 43m 47s
True Declination
0° 00' 00"
Sunlit
Object was in daylight at epoch
Visualization orbit readout
Latitude
Unknown
Longitude
Unknown
Altitude
Unknown
Speed
Unknown
Apparent Right ascension
Unknown
Apparent Declination
Unknown
Sunlit
N/A
Visualization observer readout
Local Sidereal Time
21:43:24
Azimuth
Unknown
Elevation
Unknown
Doppler factor
Unknown
Orbital elements
Apogee altitude
471.749 km
Perigee altitude
470.217 km
Semi-major axis
6,849.12 km
Eccentricity
0.00011
Inclination
53.1605°
RAAN
10.9492°
Arg. of periapsis
77.9466°
True anomaly
282.15356°
Mean anomaly
282.1661°
Eccentric anomaly
282.15983°
Mean motion
3.82905 °/min
Orbital period
94.02 mins
BSTAR
0.000031774
Loading maneuver chart data...
Computing Atmospheric mass density...
Loading historical data...
Loading historical data...
Loading historical data...
Loading historical data...
Loading historical data...
Loading historical data...
Loading historical data...

Documentation

Showing up to 5 results
|